Regional Weather Roundup
Issued by NWS Newport/Morehead, NC

Current Version | Previous Version | Text Only | Print | Product List | Glossary Off
Versions: 1 2 3 4 5 6 7 8 9 10 11 12 13 14 15 16 17 18 19 20 21 22 23 24 25 26 27 28 29 30 31 32 33 34 35 36 37 38 39 40 41 42 43 44 45 46 47 48 49 50

000
ASUS42 KMHX 280225
RWRMHX
WEATHER ROUNDUP FOR EASTERN NORTH CAROLINA
NATIONAL WEATHER SERVICE NEWPORT/MOREHEAD CITY NC
1000 PM EDT WED MAY 27 2015

NOTE: "FAIR" INDICATES FEW OR NO CLOUDS BELOW 12,000 FEET
WITH NO SIGNIFICANT WEATHER AND/OR OBSTRUCTIONS TO VISIBILITY

NCZ015>017-031-032-045>047-102-103-280300-
NORTH COAST

CITY           SKY/WX    TMP DP  RH WIND       PRES   REMARKS
EDENTON        PTCLDY    73  67  83 S8        30.25R
ELIZABETH CITY CLEAR     72  65  78 S8        30.24R
KITTY HAWK     CLEAR     73  63  71 SW6       30.25R
MANTEO         CLEAR     72  64  73 SW13      30.27R

$$

NCZ045>047-081-094-103-104-280300-
CENTRAL COAST

CITY           SKY/WX    TMP DP  RH WIND       PRES   REMARKS
FRISCO         PTCLDY    72  60  66 SW12      30.27R
SWANQUARTER      N/A     73 N/A N/A S14       30.24R

$$

NCZ095-097-098-100-101-280300-
SOUTHERN COAST

CITY           SKY/WX    TMP DP  RH WIND       PRES   REMARKS
BEAUFORT       PTCLDY    73  63  70 S7        30.26R
CEDAR ISLAND     N/A     72 N/A N/A S3        30.30S
JACKSONVILLE   PTCLDY    73  65  75 S3        30.24R
PINEY ISLAND   CLEAR    N/A N/A N/A CALM      30.26R
WILMINGTON     PTCLDY    73  66  78 S6        30.24R


$$

NCZ011>013-027>030-043-044-078>080-089-090>093-098-280300-
COASTAL PLAIN

CITY           SKY/WX    TMP DP  RH WIND       PRES   REMARKS
AHOSKIE        MOCLDY    74  67  77 S5        30.23R
CLINTON        MOCLDY    73  69  89 CALM      30.23S
ELIZABETHTOWN  CLOUDY    73  67  81 SE3       30.23R
GOLDSBORO      MOCLDY    75  68  79 S1        30.21R
GREENVILLE     CLOUDY    75  68  78 S7        30.24S
HAVELOCK       PTCLDY    70  63  78 SE3       30.26R
KENANSVILLE    MOCLDY    72  66  82 CALM      30.25R
KINSTON        MOCLDY    73  66  78 S6        30.25R
NEW BERN       PTCLDY    72  65  78 S5        30.27R
RICHLANDS      PTCLDY    72  63  73 S5        30.25R
ROCKY MOUNT    CLOUDY    72  70  93 CALM      30.23R
WASHINGTON     CLOUDY    73  66  78 S6        30.25R
WHITEVILLE     MOCLDY    71  66  85 CALM      30.22S

$$

AMZ130-135-150-152-154-156-158-170-250-252-270-ANZ085-086-088-633-658-670-280300-
MARINE OBSERVATIONS

STATION/POSITION TIME  TEMP    WIND        PRES    WAVE   SWELL
                       AIR SEA DIR/SP/G            HT/PER HT/PER
                 (UTC) (F)     (DEG/KT/KT) (MB)    (FT/S) (FT/S)
CHESAPEAKE LIGHT 0200   67     190/ 21/ 22 1023.9
64 E VA BEACH    0150   66 64  170/ 10/ 10 1024.1    2/ 7   2/ 7
DUCK             0200   73 57  200/ 14/ 18 1023.4
2 E DUCK         0111      60                N/A     2/ 5
OREGON INLET     0200   74 77  180/ 13/ 17 1024.7
13E OREGON INLT  0200      69                N/A     3/ 4
HATTERAS CG      0200   73 76  180/  6/ 10 1024.4
DIAMOND BUOY     0150   74 77  180/ 14/ 17 1024.7    3/ 7   2/ 7
CAPE LOOKOUT     0200   74     180/ 10/ 11 1024.3
BEAUFORT LAB     0200   74 76  190/ 11/ 12 1023.7
27 SE WRIGHTSVLE 0200      76  190/ 10/ 12   N/A
5 SE WRIGHTSVLE  0108   76 77  170/ 12/ 16 1023.5
225 S CAPE HAT   0150   73 74  100/ 12/ 16 1023.8    4/ 8   3/ 8
41 SE CHARLESTON 0150   77 78  140/  8/ 10 1022.7    3/ 7   3/ 7

$$



USA.gov is the U.S. government's official web portal to all federal, state and local government web resources and services.